Monticello, KY

3:37 PM EST on December 06, 2019 (GMT -0500)
Wayne County

Weather History for KEKQ - September, 2019

Change the Weather History Date:

Thursday, September 12, 2019

  Actual Average Record
Temperature  
Mean Temperature 78 °F -  
Max Temperature 91 °F 81 °F 92 °F (1983)
Min Temperature 64 °F 57 °F 44 °F (1993)
Cooling Degree Days 12    
Growing Degree Days 28 (Base 50)    
Moisture  
Dew Point 68 °F    
Average Humidity 84    
Maximum Humidity 100    
Minimum Humidity 44    
Precipitation  
Precipitation 0.00 in - - ()
Sea Level Pressure  
Sea Level Pressure 30.17 in    
Wind  
Wind Speed 6 mph (NW)    
Max Wind Speed 14 mph    
Max Gust Speed 17 mph    
Visibility 7 miles    
Events      
Averages and records for this station are not official NWS values.
T = Trace of Precipitation, MM = Missing Value Source: NWS Daily Summary

Daily Weather History Graph

Daily Weather History Graph

Search for Another Location

Airport or City:

Astronomy

Sep. 12, 2019 Rise Set
Actual Time 6:19 AM CDT 6:51 PM CDT
Civil Twilight 5:52 AM CDT 7:17 PM CDT
Nautical Twilight 5:22 AM CDT 7:48 PM CDT
Astronomical Twilight 4:50 AM CDT 8:19 PM CDT
Moon 6:32 PM CDT (9/12) 4:42 AM CDT (9/12)
Length of Visible Light 13h 24m
Length of Day
12h 32m
Waxing Gibbous, 98% of the Moon is Illuminated
Sep 12
Waxing Gibbous
Sep 13
Full
Sep 21
Last Quarter
Sep 28
New
Oct 5
First Quarter

Hourly Weather History & Observations

Time (CDT) Temp. Heat Index Dew Point Humidity Pressure Visibility Wind Dir Wind Speed Gust Speed Precip Events Conditions
12:56 AM 68.0 °F - 68.0 °F 100% 30.15 in 5.0 mi West 9.2 mph - N/A   Clear
1:56 AM 66.9 °F - 66.9 °F 100% 30.14 in 6.0 mi NE 9.2 mph - N/A   Clear
3:35 AM 64.4 °F - 64.4 °F 100% 30.18 in 2.5 mi Variable 4.6 mph - N/A   Clear
3:56 AM 64.9 °F - 64.9 °F 100% 30.14 in 3.0 mi West 3.5 mph - N/A   Clear
4:56 AM 64.9 °F - 64.9 °F 100% 30.16 in 4.0 mi WNW 3.5 mph - N/A   Clear
5:56 AM 64.0 °F - 64.0 °F 100% 30.19 in 4.0 mi NNW 9.2 mph - N/A   Clear
6:07 AM 64.4 °F - 64.4 °F 100% 30.23 in 1.0 mi Calm Calm - N/A   Clear
6:09 AM 64.4 °F - 64.4 °F 100% 30.23 in 0.8 mi Calm Calm - N/A   Mist
6:20 AM 64.4 °F - 64.4 °F 100% 30.23 in 1.5 mi Calm Calm - N/A   Partly Cloudy
6:31 AM 64.4 °F - 64.4 °F 100% 30.23 in 2.5 mi West 8.1 mph - N/A   Partly Cloudy
6:40 AM 64.4 °F - 64.4 °F 100% 30.23 in 4.0 mi West 4.6 mph - N/A   Clear
6:56 AM 64.9 °F - 64.9 °F 100% 30.21 in 7.0 mi NNE 9.2 mph - N/A   Clear
7:56 AM 71.1 °F - 70.0 °F 96% 30.22 in 9.0 mi Calm Calm - N/A   Clear
8:56 AM 80.1 °F 83.8 °F 72.0 °F 76% - 10.0 mi Variable 4.6 mph - N/A   Clear
9:56 AM 84.0 °F 89.6 °F 72.0 °F 67% 30.20 in 10.0 mi Variable 4.6 mph - N/A   Clear
10:56 AM 88.0 °F 93.8 °F 71.1 °F 57% 30.19 in 10.0 mi Variable 4.6 mph - N/A   Clear
11:56 AM 88.0 °F 93.8 °F 71.1 °F 57% 30.17 in 10.0 mi WNW 9.2 mph - N/A   Partly Cloudy
12:56 PM 89.1 °F 94.1 °F 70.0 °F 53% 30.15 in 10.0 mi Variable 5.8 mph - N/A   Mostly Cloudy
1:56 PM 89.1 °F 94.1 °F 70.0 °F 53% 30.13 in 10.0 mi NNW 9.2 mph - N/A   Partly Cloudy
2:56 PM 91.9 °F 95.4 °F 66.9 °F 44% 30.11 in 10.0 mi NE 8.1 mph - N/A   Partly Cloudy
4:56 PM 91.0 °F 95.6 °F 69.1 °F 48% 30.10 in 10.0 mi NNW 9.2 mph 17.3 mph N/A   Clear
5:56 PM 87.1 °F 91.3 °F 69.1 °F 55% 30.10 in 10.0 mi NNE 13.8 mph - N/A   Clear
6:56 PM 80.1 °F 83.2 °F 70.0 °F 71% 30.12 in 10.0 mi Variable 6.9 mph - N/A   Clear
7:56 PM 75.0 °F - 70.0 °F 84% 30.13 in 10.0 mi WNW 9.2 mph - N/A   Clear
8:56 PM 72.0 °F - 70.0 °F 93% 30.13 in 10.0 mi West 10.4 mph - N/A   Clear
9:56 PM 69.1 °F - 68.0 °F 96% 30.14 in 10.0 mi NNE 8.1 mph - N/A   Clear
10:56 PM 68.0 °F - 68.0 °F 100% 30.14 in 10.0 mi Calm Calm - N/A   Clear
11:56 PM 66.9 °F - 66.9 °F 100% 30.14 in 10.0 mi Variable 6.9 mph - N/A   Clear